Location: Unspecified
(0.0000°N, 0.0000°E)
Time: 06:34:59
(UTC+00:00)

Transit 2A - Pass Details

Date: 29 May 2019
Orbit: 598 x 960 km, 66.7° (Epoch: 15 September)

Event Time Altitude Azimuth Distance (km) Brightness Sun altitude
Rises 16:07:19 0° 348° (NNW) 3,207 9.7 25.4°
Reaches altitude 10° 16:09:50 10° 352° (N) 2,224 8.9 24.9°
Maximum altitude 16:14:45 55° 70° (ENE) 815 6.2 23.7°
Drops below altitude 10° 16:19:14 10° 147° (SSE) 2,036 7.8 22.7°
Sets 16:21:28 0° 152° (SSE) 2,910 8.6 22.2°
